CZ-6A DEB, 61389

Orbit data source: Space-Track

CZ-6A DEB, 61389 is space debris in LEO originally from a launch on Tue, 06 Aug 2024 UTC launched from the Taiyaun Space Center, China (TSC). Debris objects in space refer to the collection of defunct objects orbiting the Earth. Examples of debris include non-operational satellites, rocket bodies, and fragments generated from explosions, collisions, or faulty payload assembly.

Loading next visibility...
Identifier
61389, 2024-140XE
Orbit
LEO
Country
Flag of CNCN / PRC
Related business
Manufacturer
SAST
Mission
Spacecraft
Bus & Motor
Unknown
Mass
Unknown
Launch date (UTC)
2024-08-06 (2 years ago)
Launch vehicle
Unknown
Launch site
Taiyaun Space Center, China (TSC)
Object type
Payload
Rocket body
Debris
Shape & HBR
Unknown shape, 0.1 m
Radar Cross Section
Small (<0.1 m²)

Expand to show TLE details & history
Last TLE update: 14 hours ago

TLE from 14 hours ago
0 CZ-6A DEB
1 61389U 24140XE  26129.94263350  .00001397  00000-0  62145-3 0  9991
2 61389  89.0352 281.8083 0051504 319.1615  40.5721 14.21713524 86864
Epoch: 2026-05-09T22:37Z
TLE epoch observation values (Epoch: 2026-05-09T22:37:23.534Z)
Latitude
-0.00001°
Longitude
74.70742°
Altitude
794.536 km
Speed
7.471 km/s
True Right ascension
18h 47m 13s
True Declination
0° 00' 00"
Sunlit
Object was in full shadow at epoch
Visualization orbit readout
Latitude
Unknown
Longitude
Unknown
Altitude
Unknown
Speed
Unknown
Apparent Right ascension
Unknown
Apparent Declination
Unknown
Sunlit
N/A
Visualization observer readout
Local Sidereal Time
20:41:33
Azimuth
Unknown
Elevation
Unknown
Doppler factor
Unknown
Orbital elements
Apogee altitude
853.567 km
Perigee altitude
779.457 km
Semi-major axis
7,194.649 km
Eccentricity
0.00515
Inclination
89.0352°
RAAN
281.8083°
Arg. of periapsis
319.1615°
True anomaly
40.95785°
Mean anomaly
40.5721°
Eccentric anomaly
40.76478°
Mean motion
3.55655 °/min
Orbital period
101.22 mins
BSTAR
0.00062145
Loading maneuver chart data...
Computing Atmospheric mass density...
Loading historical data...
Loading historical data...
Loading historical data...
Loading historical data...
Loading historical data...
Loading historical data...
Loading historical data...

Documentation

Showing up to 5 results
|